Tracking 28565 objects as of 3-Mar-2024
HD Live streaming from Space Station
objects crossing your sky now

STARLINK-4646

Track STARLINK-4646 now!
10-day predictions
STARLINK-4646 is classified as:


NORAD ID: 53737
Int'l Code: 2022-107AP
Perigee: 545.8 km
Apogee: 547.9 km
Inclination: 53.2 °
Period: 95.4 minutes
Semi major axis: 6917 km
RCS: Unknown
Launch date: September 5, 2022
Source: United States (US)
Launch site: AIR FORCE EASTERN TEST RANGE (AFETR)
Your satellite tracking list
Your tracking list is empty




NASA's NSSDC Master Catalog

Two Line Element Set (TLE):
1 53737U 22107AP  24063.02156878 -.00000262  00000-0  16222-5 0  9998
2 53737  53.2193 331.0061 0001513 102.4439 257.6722 15.08847322 82604
Source of the keplerian elements: AFSPC